TimeCST,TemperatureF,Dew PointF,Humidity,Sea Level PressureIn,VisibilityMPH,Wind Direction,Wind SpeedMPH,Gust SpeedMPH,PrecipitationIn,Events,Conditions,WindDirDegrees,DateUTC
12:52 AM,12.0,5.0,73,30.30,10.0,SSE,8.1,-,N/A,,Mostly Cloudy,160,2013-01-23 06:52:00
1:52 AM,12.9,5.0,71,30.28,10.0,SSE,6.9,-,N/A,,Mostly Cloudy,160,2013-01-23 07:52:00
2:52 AM,10.9,3.9,73,30.27,10.0,SSE,6.9,-,N/A,,Mostly Cloudy,160,2013-01-23 08:52:00
3:52 AM,10.9,5.0,77,30.26,10.0,SSE,9.2,-,N/A,,Mostly Cloudy,160,2013-01-23 09:52:00
4:52 AM,10.9,6.1,81,30.24,10.0,SSE,8.1,-,N/A,,Mostly Cloudy,150,2013-01-23 10:52:00
5:52 AM,12.9,7.0,77,30.23,10.0,SE,6.9,-,N/A,,Mostly Cloudy,140,2013-01-23 11:52:00
6:52 AM,12.0,6.1,77,30.24,10.0,SE,5.8,-,N/A,,Mostly Cloudy,140,2013-01-23 12:52:00
7:52 AM,12.0,6.1,77,30.25,10.0,SE,4.6,-,N/A,,Mostly Cloudy,140,2013-01-23 13:52:00
8:52 AM,16.0,9.0,74,30.26,10.0,Calm,Calm,-,N/A,,Mostly Cloudy,0,2013-01-23 14:52:00
9:52 AM,19.9,10.9,68,30.29,10.0,North,5.8,-,N/A,,Mostly Cloudy,350,2013-01-23 15:52:00
10:52 AM,21.9,14.0,72,30.31,10.0,North,13.8,-,N/A,,Mostly Cloudy,350,2013-01-23 16:52:00
11:52 AM,25.0,15.1,66,30.31,10.0,North,17.3,-,N/A,,Mostly Cloudy,350,2013-01-23 17:52:00
12:52 PM,27.0,17.1,66,30.31,10.0,North,19.6,-,N/A,,Mostly Cloudy,350,2013-01-23 18:52:00
1:52 PM,28.0,17.1,63,30.32,10.0,NNW,17.3,-,N/A,,Scattered Clouds,340,2013-01-23 19:52:00
2:52 PM,28.9,17.1,61,30.34,10.0,NNW,18.4,25.3,N/A,,Scattered Clouds,340,2013-01-23 20:52:00
3:52 PM,28.0,16.0,61,30.35,10.0,NNW,18.4,-,N/A,,Scattered Clouds,340,2013-01-23 21:52:00
4:52 PM,26.1,12.9,58,30.38,10.0,North,16.1,24.2,N/A,,Mostly Cloudy,350,2013-01-23 22:52:00
5:52 PM,21.9,12.9,68,30.41,10.0,NNW,16.1,-,N/A,,Mostly Cloudy,340,2013-01-23 23:52:00
6:52 PM,21.0,10.0,63,30.45,10.0,NNW,17.3,-,N/A,,Mostly Cloudy,340,2013-01-24 00:52:00
7:52 PM,18.0,5.0,57,30.49,10.0,North,19.6,25.3,N/A,,Mostly Cloudy,360,2013-01-24 01:52:00
8:52 PM,16.0,6.1,65,30.51,10.0,North,16.1,-,N/A,,Mostly Cloudy,360,2013-01-24 02:52:00
9:52 PM,14.0,3.0,62,30.52,10.0,NNE,11.5,23.0,N/A,,Mostly Cloudy,20,2013-01-24 03:52:00
10:52 PM,10.9,-0.0,61,30.56,10.0,North,11.5,-,N/A,,Scattered Clouds,360,2013-01-24 04:52:00
11:52 PM,9.0,-0.9,64,30.59,10.0,North,12.7,-,N/A,,Partly Cloudy,360,2013-01-24 05:52:00